Regional Weather Roundup
Issued by NWS Wakefield, VA

Home | Current Version | Previous Version | Graphics & Text | Print | Product List | Glossary On
Versions: 1 2 3 4 5 6 7 8 9 10 11 12 13 14 15 16 17 18 19 20 21 22 23 24 25 26 27
000
ASUS41 KAKQ 260115
RWRAKQ

REGIONAL WEATHER ROUNDUP
NATIONAL WEATHER SERVICE WAKEFIELD VA
900 PM EDT SUN JUN 25 2017

Note: "fair" indicates few or no clouds below 12,000 feet with no
significant weather and/or obstructions to visibility. * = Denotes
station may not report precipitation (e.g., rain,snow,etc.),
thunder or fog.

VAZ042-051-052>054-056-260200-
NORTHERN VIRGINIA

CITY           SKY/WX    TMP DP  RH WIND       PRES   REMARKS
WASH NATIONAL  MOCLDY    79  46  31 NW10      30.03R
DULLES         MOCLDY    74  45  35 NW6       30.03S
FORT BELVOIR   PTCLDY    78  45  30 NW6       30.02R
QUANTICO       MOCLDY    78  48  34 N8        30.03R
FREDERICKSBRG* CLOUDY    79  54  41 N5        30.03R
STAFFORD*      PTCLDY    71  49  45 NW6       30.07R
WARRENTON      MOCLDY    70  48  46 CALM      30.03S
CULPEPER*      CLEAR     74  49  40 CALM      30.05R
MANASSAS*      PTCLDY    72  51  47 N5        30.04R
LEESBURG*      CLEAR    N/A N/A N/A W5        30.05S
WINCHESTER     CLEAR     70  46  43 W3        30.05S
FRONT ROYAL*   CLEAR     70  46  43 CALM      30.05S
LURAY*         CLEAR     72  45  37 CALM      30.07S
$$

VAZ048-049-060>072-079>083-260200-
CENTRAL AND SOUTH CENTRAL VIRGINIA

CITY           SKY/WX    TMP DP  RH WIND       PRES   REMARKS
RICHMOND       MOCLDY    78  58  49 W8        30.04R
CHESTERFIELD*  NOT AVBL
PETERSBURG*    CLOUDY    71  60  67 CALM      30.05S
HANOVER        PTCLDY    76  58  53 SW5       30.05R
TAPPAHANNOCK*  PTCLDY    75  52  44 W3        30.04R
QUINTON*       FAIR      75  64  68 CALM      30.03R
CHARLOTTSVILLE CLEAR     73  49  42 CALM      30.06R
GORDONSVILLE*  CLEAR     75  47  36 CALM      30.05R
ORANGE*        CLEAR     72  46  40 NW3       30.05R
LOUISA*        MOCLDY    72  66  83 CALM      30.05R
BUMPASS*       FAIR      71  65  80 CALM      30.05R
FARMVILLE*     CLEAR     69  59  70 SW3       30.06R
CREWE*         FAIR      73  53  49 W3        30.07R
FORT PICKETT*  FAIR      70  56  61 W12       30.07R
CHASE CITY*    FAIR      69  69  99 CALM      30.08S
CLARKSVILLE*   FAIR      70  68  94 CALM      30.08R
SOUTH HILL*    PTCLDY    73  62  70 CALM      30.12S
LAWRENCEVILLE* FAIR      73  59  61 CALM      30.06S
EMPORIA*       CLOUDY    73  59  60 CALM      30.07R
$$

VAZ088>098-260200-
SOUTHEAST VIRGINIA

CITY           SKY/WX    TMP DP  RH WIND       PRES   REMARKS
NORFOLK        CLOUDY    81  64  56 SE5       30.01R
VIRGINIA BEACH MOCLDY    78  62  57 S5        30.01R
NORFOLK NAVAL  CLOUDY    78  65  63 CALM      30.03R
WEST POINT*    CLOUDY    77  62  59 W3        30.04R
SALUDA*        FAIR      75  66  73 CALM      30.02R
NEWPORT NEWS   CLOUDY    76  68  76 N3        30.02R
LANGLEY AFB    CLOUDY    77  68  74 CALM      30.01R
FORT EUSTIS    CLOUDY    80  64  57 W6        30.00R
WILLIAMSBURG*  CLOUDY    79  66  65 NW6       30.04R
HR EXEC AP*    MOCLDY    73  68  83 CALM      30.00R
FRANKLIN*      PTCLDY    77  63  61 W3        30.04S
US460-WAKEFLD  PTCLDY    77  62  59 W5        30.04R
$$

VAZ020-022-025-037-045-260200-
WEST CENTRAL AND SOUTHWEST VIRGINIA

CITY           SKY/WX    TMP DP  RH WIND       PRES   REMARKS
STAUNTON*      CLEAR     69  45  41 CALM      30.11S
WAYNESBORO*    CLEAR     67  47  48 CALM      30.11R
HOT SPRINGS VA CLEAR     59  34  38 CALM      30.21S
LYNCHBURG      CLEAR     69  50  50 CALM      30.11R
DANVILLE       MOCLDY    70  66  87 SW5       30.10R
SOUTH BOSTON*  FAIR      70  69  95 CALM      30.09R
MARTINSVILLE   PTCLDY    65  62  90 CALM      30.15R
ROANOKE        PTCLDY    69  46  43 NW8       30.15R
BLACKSBURG     CLEAR     66  46  48 W3        30.21R
DUBLIN*        CLEAR     66  41  40 CALM      30.19R
MARION*        CLEAR     64  47  54 CALM      30.23R
HILLSVILLE*    CLEAR     65  40  40 CALM      30.19R
RICHLANDS*     FAIR      65  46  49 CALM      30.22R
WISE*          CLEAR     64  45  48 CALM      30.23S
ABINGDON*      CLEAR     68  51  54 CALM      30.19S
$$

MDZ021>025-VAZ099-100-260200-
SOUTHERN MARYLAND AND THE DELMARVA PENINSULA

CITY           SKY/WX    TMP DP  RH WIND       PRES   REMARKS
PATUXENT RIVER CLOUDY    77  66  68 SW3       30.00R
BAY BRIDGE APT PTCLDY    79  52  38 NW10      30.01R
LEONARDTOWN    CLOUDY    73  64  73 CALM      30.03R
DOVER          PTCLDY    78  57  47 W6        29.98R
GEORGETOWN     CLOUDY    77  65  66 S6        30.00R
EASTON         MOCLDY    79  50  36 NW6       30.04R
CAMBRIDGE      MOCLDY    75  66  73 CALM      29.99S
SALISBURY      MOCLDY    76  64  66 W6        30.00R
OCEAN CITY     MOCLDY    73  69  87 SW5       30.00S
WALLOPS ISLAND CLOUDY    75  67  76 SW7       30.01R
ACCOMACK*      CLOUDY    76  65  69 CALM      30.01S
$$

NCZ012>017-030>032-260200-
NORTH CENTRAL AND EASTERN NORTH CAROLINA

CITY           SKY/WX    TMP DP  RH WIND       PRES   REMARKS
ROANOKE RAPIDS FAIR      75  63  64 CALM      30.06R
RALEIGH        CLOUDY    74  67  78 W3        30.09R
ELIZABETH CITY CLOUDY    76  74  93 SW5       30.03R
AHOSKIE*         N/A     74  67  80 CALM      30.05R
EDENTON*       CLOUDY    80  70  71 CALM      30.04R
CURRITUCK*     CLOUDY    78  76  96 CALM      30.04R
KILL DEVIL HLS CLOUDY    76  74  92 CALM      30.01S
MANTEO         CLOUDY    78  74  87 CALM      30.02S
CAPE HATTERAS  CLOUDY    79  75  87 SW7       30.04R
TARBORO*       NOT AVBL
GOLDSBORO      NOT AVBL
WASHINGTON     CLOUDY   N/A N/A N/A NW3       30.05R
GREENVILLE     CLOUDY    77  68  73 CALM      30.07R
NEW BERN       CLOUDY    78  75  90 S3        30.06R
WILMINGTON     LGT RAIN  73  70  90 CALM      30.05F
$$

VAZ048-260200-
ELSEWHERE

CITY           SKY/WX    TMP DP  RH WIND       PRES   REMARKS
HARRISBURG PA  PTCLDY    76  51  41 W10       29.99R
BALTIMORE      PTCLDY    75  49  39 NW9       30.01R
ANNAPOLIS      CLEAR     76  52  43 W6        30.00R
ANDREWS AFB    PTCLDY    78  44  30 NW10      30.02R
PHILADELPHIA   MOCLDY    81  52  36 W10       29.97R
HENDERSON NC   CLOUDY    71  59  67 CALM      30.09R
GREENSBORO     MOCLDY    72  64  76 W5        30.11R
ROCKY MOUNT    CLOUDY    78  64  61 W3        30.07R
$$

VAZ100-260200-
MARINE

STATION/POSITION TIME  TEMP    WIND        PRES    WAVE   SWELL
                       AIR SEA DIR/SP/G            HT/PER HT/PER
                 (UTC) (F)     (DEG/KT/KT) (MB)    (FT/S) (FT/S)
BRANDYWINE LGT   0036   72     190/ 14/ 14 1015.5S
CAPE MAY NJ      0048   71 70  160/  8/  9 1015.1S
LEWES DE         0036   77 73  190/  3/  5 1015.4R
15NM E FENWICK I 0050   72 69  210/  6/  8 1015.9S   3/ 6   2/ 6
OCEAN-CITY-INLET 0048   71 68  220/  4/  5 1016.0R
WACHAPREAGUE VA  0048   78 80   CALM  /  1 1016.1R
THOMAS POINT MD  0100   79 79  310/ 13/ 15   N/A
GOOSES REEF MD   0050   81     360/ 12/ 14 1016.9R
COVE POINT MD    0048   79     290/  5/  6 1016.6R
SOLOMONS ISLAND  0036   79 79  240/  5/  5   N/A
BISHOPS HEAD MD  0048   80 85  200/  8/  9 1015.9R
PINEY POINT MD   0042          250/  4/  7   N/A
POTOMAC MD       0050   80     210/  8/ 10 1015.2R
CAMBRIDGE MD     0048   79 83              1016.5R
LEWISETTA VA     0048   79 81  210/  4/  4 1016.2R
RAPPAHANNOCK LGT 0042          210/  4/  5 1016.8R
STINGRAY PT      0050   80     220/  6/  8 1016.6R
YORK RVR RNG VA  0048   80     200/  2/  3 1016.7R
YORKTOWN VA      0048   79 79  240/  2/  3 1016.3R
JAMESTOWN VA     0050   81     280/ 10/ 14   N/A
DOMINION TERM VA 0048   81     270/  2/  2 1016.5R
KIPTOPEKE VA     0042      78   CALM  /  1   N/A
CHES BAY BRIDGE  0048   79 76  150/  2/  5 1016.3R
CAPE HENRY VA    0048   78     150/  4/  4   N/A
WILLOUBY STN VA  0048   80      80/  2/  2 1016.4R
S CRANEY ISL VA  0048   81     270/  2/  3 1016.2R
CAPE HENRY BUOY  0030      75                N/A     2/ 6
1ST LANDING BUOY 0050   78                 1016.2R
CAPE CHARLES BUO 0051      74                N/A     2/ 6
64NM E OF VA BCH 0050   75 76  190/  4/  6 1016.8R   3/ 6   2/ 6
DUCK PIER NC     0048   74 62   70/  6/  6 1016.3R
44100 DUCK FRF   0005      74                N/A     2/ 8
OREGON INLET NC  0042   82 84  210/  7/  8 1016.2S
HATTERAS NC      0048   78 79  210/  6/ 10 1016.9R
DIAMOND SHLS NC  0050   79 80  240/ 12/ 14 1017.1R   3/ 6   2/ 6
CAPE LOOKOUT NC  0100   75     230/ 13/ 18 1017.2R
$$




USA.gov is the U.S. government's official web portal to all federal, state and local government web resources and services.